Regional Weather Roundup
Issued by NWS

Home | Current Version | Previous Version | Graphics & Text | Print | Product List | Glossary On
Versions: 1 2 3 4 5 6 7 8 9 10 11 12 13 14 15 16 17 18 19 20 21 22 23 24 25 26 27 28 29 30 31 32 33 34 35 36 37 38 39 40 41 42 43 44 45 46 47 48 49 50
000
ASUS43 KBIS 102310
RWRND

NORTH DAKOTA REGIONAL WEATHER ROUNDUP
NATIONAL WEATHER SERVICE BISMARCK ND
500 PM CST WED FEB 10 2016

NOTE: "FAIR" INDICATES FEW OR NO CLOUDS BELOW 12,000 FEET WITH NO
SIGNIFICANT WEATHER AND/OR OBSTRUCTIONS TO VISIBILITY.


NDZ001>003-009>011-017-110000-
NORTHWEST NORTH DAKOTA

CITY           SKY/WX    TMP DP  RH WIND       PRES   REMARKS
WILLISTON      CLOUDY    29  24  82 N12       30.12R WCI  19
MINOT          CLOUDY    15   6  67 NE5       30.15R HAZE    WCI   8
MINOT AFB      FLURRIES  13   9  84 NE6       30.15R WCI   3
$$

NDZ018>021-031>035-040>046-110000-
SOUTHWEST NORTH DAKOTA

CITY           SKY/WX    TMP DP  RH WIND       PRES   REMARKS
BISMARCK       CLOUDY    24  15  68 NE9       30.12R WCI  14
DICKINSON      CLOUDY    31  25  78 N15       30.05R
GARRISON         N/A     17  12  80 NE8       30.12R WCI   7
HETTINGER ARPT CLOUDY    39  28  64 N16       30.04R
$$

NDZ004>008-012>016-024-026-027-054-110000-
NORTHEAST NORTH DAKOTA

CITY           SKY/WX    TMP DP  RH WIND       PRES   REMARKS
GRAND FORKS    CLOUDY    10  -1  61 NE7       30.25R WCI  -1
GRND FRKS AFB  CLOUDY     9  -1  63 N7        30.25R WCI  -3
DEVILS LAKE    FLURRIES   7   2  80 E9        30.19R WCI  -7
$$

NDZ022-023-025-028>030-036>039-047>053-110000-
SOUTHEAST NORTH DAKOTA

CITY           SKY/WX    TMP DP  RH WIND       PRES   REMARKS
FARGO          CLOUDY    12   2  64 N12       30.21R WCI  -2
JAMESTOWN      LGT SNOW   9   4  80 E10       30.16R WCI  -5
$$




USA.gov is the U.S. government's official web portal to all federal, state and local government web resources and services.